Location: Mexico
(19.4000°N, 99.1500°W)
Time: 21:15:09
(UTC-06:00)

ISS - Pass Details

Date: 17 November 2019
Orbit: 412 x 421 km, 51.6° (Epoch: 12 November)

Event Time Altitude Azimuth Distance (km) Brightness Sun altitude
Rises 19:54:32 0° 249° (WSW) 2,340 1.3 -27.4°
Reaches altitude 10° 19:57:07 10° 270° (W) 1,482 -0.1 -28.0°
Enters shadow 19:58:28 16° 292° (WNW) 1,188 -0.9 -28.3°
